TimeMST,TemperatureF,Dew PointF,Humidity,Sea Level PressureIn,VisibilityMPH,Wind Direction,Wind SpeedMPH,Gust SpeedMPH,PrecipitationIn,Events,Conditions,WindDirDegrees,DateUTC
12:55 AM,66.9,28.0,23,30.06,10.0,North,5.8,-,N/A,,Clear,350,2012-11-24 07:55:00
1:00 AM,-9999,-9999,N/A,-9999,-9999.0,North,-9999.0,-,N/A,,Unknown,0,2012-11-24 08:00:00
1:55 AM,68.0,27.0,21,30.05,10.0,North,6.9,-,N/A,,Clear,360,2012-11-24 08:55:00
2:55 AM,68.0,27.0,21,30.04,10.0,North,8.1,-,N/A,,Clear,10,2012-11-24 09:55:00
3:55 AM,66.9,27.0,22,30.03,10.0,North,6.9,-,N/A,,Clear,10,2012-11-24 10:55:00
4:55 AM,64.0,28.0,26,30.02,10.0,NNE,5.8,-,N/A,,Clear,20,2012-11-24 11:55:00
5:55 AM,62.1,28.9,29,30.03,10.0,NNE,5.8,-,N/A,,Clear,30,2012-11-24 12:55:00
6:55 AM,61.0,30.0,31,30.04,10.0,NNE,6.9,-,N/A,,Clear,30,2012-11-24 13:55:00
7:55 AM,61.0,30.9,32,30.05,10.0,NNE,8.1,-,N/A,,Clear,30,2012-11-24 14:55:00
8:55 AM,64.9,32.0,29,30.06,10.0,NNE,5.8,-,N/A,,Clear,20,2012-11-24 15:55:00
9:55 AM,71.1,33.1,25,30.07,10.0,North,5.8,-,N/A,,Clear,10,2012-11-24 16:55:00
10:55 AM,75.9,33.1,21,30.06,10.0,North,10.4,-,N/A,,Clear,10,2012-11-24 17:55:00
11:55 AM,81.0,28.9,15,30.02,10.0,NNE,13.8,-,N/A,,Clear,20,2012-11-24 18:55:00
12:55 PM,82.9,28.9,14,29.99,10.0,NNE,10.4,18.4,N/A,,Clear,20,2012-11-24 19:55:00
1:55 PM,84.9,28.0,13,29.96,10.0,North,9.2,-,N/A,,Clear,10,2012-11-24 20:55:00
2:55 PM,84.9,28.0,13,29.94,10.0,North,5.8,-,N/A,,Clear,10,2012-11-24 21:55:00
3:55 PM,84.9,27.0,12,29.93,10.0,North,6.9,-,N/A,,Clear,360,2012-11-24 22:55:00
4:55 PM,82.9,27.0,13,29.92,10.0,North,8.1,-,N/A,,Clear,360,2012-11-24 23:55:00
5:55 PM,78.1,27.0,15,29.91,10.0,North,6.9,-,N/A,,Clear,350,2012-11-25 00:55:00
6:55 PM,75.0,27.0,17,29.91,10.0,North,6.9,-,N/A,,Clear,360,2012-11-25 01:55:00
7:55 PM,73.0,27.0,18,29.91,10.0,North,6.9,-,N/A,,Clear,360,2012-11-25 02:55:00
8:55 PM,73.0,27.0,18,29.91,10.0,North,6.9,-,N/A,,Clear,10,2012-11-25 03:55:00
9:55 PM,68.0,28.0,22,29.91,10.0,Calm,Calm,-,N/A,,Clear,0,2012-11-25 04:55:00
10:55 PM,64.9,32.0,29,29.91,10.0,Calm,Calm,-,N/A,,Clear,0,2012-11-25 05:55:00
11:55 PM,63.0,32.0,31,29.91,10.0,Calm,Calm,-,N/A,,Clear,0,2012-11-25 06:55:00